TimeCST,TemperatureF,Dew PointF,Humidity,Sea Level PressureIn,VisibilityMPH,Wind Direction,Wind SpeedMPH,Gust SpeedMPH,PrecipitationIn,Events,Conditions,WindDirDegrees,DateUTC
12:00 AM,30.2,28.4,93,29.86,7.0,NW,9.2,18.4,N/A,,Overcast,320,2012-12-26 06:00:00
12:53 AM,30.0,27.0,88,29.92,8.0,NW,8.1,19.6,N/A,,Mostly Cloudy,320,2012-12-26 06:53:00
1:12 AM,28.4,26.6,93,29.88,7.0,NNW,12.7,20.7,N/A,,Scattered Clouds,330,2012-12-26 07:12:00
1:53 AM,28.9,26.1,89,29.95,9.0,NW,8.1,16.1,N/A,,Mostly Cloudy,320,2012-12-26 07:53:00
2:28 AM,28.4,24.8,86,29.92,5.0,NW,15.0,29.9,0.00,Snow,Light Snow,320,2012-12-26 08:28:00
2:53 AM,28.0,24.1,85,29.99,7.0,NW,12.7,25.3,0.00,,Partly Cloudy,310,2012-12-26 08:53:00
3:31 AM,26.6,23.0,86,29.95,9.0,NW,10.4,23.0,N/A,,Overcast,310,2012-12-26 09:31:00
3:53 AM,26.1,23.0,88,30.00,10.0,NNW,9.2,17.3,N/A,,Mostly Cloudy,330,2012-12-26 09:53:00
4:06 AM,26.6,23.0,86,29.96,10.0,NNW,11.5,19.6,N/A,,Scattered Clouds,340,2012-12-26 10:06:00
4:41 AM,26.6,21.2,80,29.96,10.0,NNW,6.9,17.3,N/A,,Mostly Cloudy,330,2012-12-26 10:41:00
4:53 AM,26.1,21.9,84,30.01,9.0,NW,9.2,16.1,N/A,,Mostly Cloudy,320,2012-12-26 10:53:00
5:27 AM,24.8,21.2,86,29.98,10.0,NW,11.5,20.7,N/A,,Scattered Clouds,310,2012-12-26 11:27:00
5:53 AM,25.0,21.0,85,30.04,10.0,NNW,8.1,-,N/A,,Partly Cloudy,330,2012-12-26 11:53:00
6:53 AM,24.1,19.9,84,30.07,10.0,NW,5.8,-,N/A,,Clear,320,2012-12-26 12:53:00
7:53 AM,23.0,19.9,88,30.10,10.0,NW,4.6,-,N/A,,Partly Cloudy,320,2012-12-26 13:53:00
8:53 AM,24.1,19.9,84,30.15,10.0,NW,5.8,-,N/A,,Clear,320,2012-12-26 14:53:00
9:53 AM,26.1,21.0,81,30.17,10.0,Variable,4.6,-,N/A,,Clear,0,2012-12-26 15:53:00
10:53 AM,27.0,23.0,85,30.18,10.0,NNW,9.2,-,N/A,,Clear,330,2012-12-26 16:53:00
11:53 AM,28.9,24.1,82,30.16,10.0,NW,4.6,-,N/A,,Partly Cloudy,320,2012-12-26 17:53:00
12:53 PM,30.0,25.0,82,30.14,10.0,NNW,4.6,-,N/A,,Unknown,330,2012-12-26 18:53:00
1:07 PM,30.2,24.8,80,30.10,10.0,NW,5.8,-,N/A,,Mostly Cloudy,320,2012-12-26 19:07:00
1:31 PM,30.2,24.8,80,30.10,10.0,Variable,5.8,-,N/A,,Scattered Clouds,0,2012-12-26 19:31:00
1:53 PM,30.9,26.1,82,30.14,10.0,NW,5.8,-,N/A,,Scattered Clouds,310,2012-12-26 19:53:00
2:53 PM,32.0,26.1,79,30.14,10.0,North,4.6,-,N/A,,Scattered Clouds,350,2012-12-26 20:53:00
3:05 PM,33.8,26.6,75,30.11,10.0,Calm,Calm,-,N/A,,Mostly Cloudy,0,2012-12-26 21:05:00
3:36 PM,32.0,24.8,75,30.11,10.0,NNW,4.6,-,N/A,,Scattered Clouds,340,2012-12-26 21:36:00
3:53 PM,32.0,26.1,79,30.16,10.0,NW,3.5,-,N/A,,Scattered Clouds,310,2012-12-26 21:53:00
4:53 PM,30.0,26.1,85,30.17,10.0,Calm,Calm,-,N/A,,Clear,0,2012-12-26 22:53:00
5:53 PM,27.0,25.0,92,30.19,8.0,WNW,3.5,-,N/A,,Scattered Clouds,300,2012-12-26 23:53:00
6:53 PM,25.0,23.0,92,30.21,7.0,Calm,Calm,-,N/A,,Clear,0,2012-12-27 00:53:00
7:53 PM,23.0,21.9,96,30.21,9.0,Calm,Calm,-,N/A,,Clear,0,2012-12-27 01:53:00
8:53 PM,21.0,19.9,96,30.18,5.0,SE,3.5,-,N/A,,Clear,140,2012-12-27 02:53:00
9:53 PM,19.9,18.0,92,30.19,6.0,Calm,Calm,-,N/A,,Clear,0,2012-12-27 03:53:00
10:53 PM,18.0,17.1,96,30.19,5.0,Calm,Calm,-,N/A,,Clear,0,2012-12-27 04:53:00
11:53 PM,17.1,14.0,88,30.19,9.0,Calm,Calm,-,N/A,,Clear,0,2012-12-27 05:53:00